Preview of NWS' New Version of Forecast
This preview is not operational and should not be used for support decisions.

Regional Weather Roundup (RWR)

Issued by National Weather Service (NWS)

                            
000
ASUS45 KCYS 191810
RWRWY 

WYOMING REGIONAL WEATHER ROUNDUP
NATIONAL WEATHER SERVICE CHEYENNE WY
1200 PM MDT FRI APR 19 2019

NOTE:  "FAIR" INDICATES FEW OR NO CLOUDS BELOW 12,000 FEET
WITH NO SIGNIFICANT WEATHER AND/OR OBSTRUCTIONS TO VISIBILITY.

WYZ001-191900-
YELLOWSTONE NATIONAL PARK
  
CITY           SKY/WX    TMP DP  RH WIND       PRES   REMARKS
LK YELLOWSTONE   N/A     46  30  53 VRB6      30.25F                  
6HR MIN TEMP:  22; 6HR MAX TEMP:  47;                                

W YELLOWSTONE  NOT AVBL                                               

$$
WYZ002>013-054>058-071-098>099-191900-
NORTHERN WYOMING
  
CITY           SKY/WX    TMP DP  RH WIND       PRES   REMARKS
JACKSON        FAIR      47  33  58 N3        30.23F                  
CODY           FAIR      69  30  23 W9        30.07F                  
GREYBULL       FAIR      69  31  24 SW7       30.03F                  
6HR MIN TEMP:  39; 6HR MAX TEMP:  69;                                

WORLAND        FAIR      69  32  25 VRB6      30.04F                  
6HR MIN TEMP:  34; 6HR MAX TEMP:  70;                                

SHERIDAN       FAIR      72  36  26 NW13      29.99F                  
6HR MIN TEMP:  41; 6HR MAX TEMP:  73;                                

BUFFALO        FAIR      69  31  24 NW6       30.04F                  
6HR MIN TEMP:  45; 6HR MAX TEMP:  70;                                

GILLETTE       FAIR      68  36  30 NW15G25   30.01F                  
6HR MIN TEMP:  49; 6HR MAX TEMP:  69;                                

HULETT         FAIR      68  34  28 NW9G24    30.00                   
NEWCASTLE      FAIR      64  30  27 NW7       30.03                   

$$
WYZ014>020-022>026-101>103-191900-
CENTRAL WYOMING
  
CITY           SKY/WX    TMP DP  RH WIND       PRES   REMARKS
BIG PINEY      FAIR      57  30  35 E5        30.24F                  
6HR MIN TEMP:  26; 6HR MAX TEMP:  57;                                

PINEDALE       FAIR      54  32  43 N5        30.25  HAZE             
DUBOIS         FAIR      61  23  23 N15G22    30.17                   
LANDER         FAIR      66  31  27 E9        30.10F                  
6HR MIN TEMP:  40; 6HR MAX TEMP:  66;                                

RIVERTON       FAIR      66  32  28 W10       30.10F                  
6HR MIN TEMP:  44; 6HR MAX TEMP:  67;                                

CASPER         FAIR      65  35  33 SW13      30.10F                  
6HR MIN TEMP:  37; 6HR MAX TEMP:  65;                                

DOUGLAS        FAIR      68  35  29 W17G23    30.08F                  
6HR MIN TEMP:  27; 6HR MAX TEMP:  69;                                


$$
WYZ021-027>030-104>119-191900-
SOUTHERN WYOMING
  
CITY           SKY/WX    TMP DP  RH WIND       PRES   REMARKS
EVANSTON       FAIR      56  28  34 SW7       30.27F                  
6HR MIN TEMP:  36; 6HR MAX TEMP:  56;                                

KEMMERER       FAIR      55  28  35 W9G16     30.26                   
ROCK SPRINGS   FAIR      57  27  31 W14       30.24F                  
6HR MIN TEMP:  35; 6HR MAX TEMP:  57;                                

DIXON          FAIR      60  29  31 S16G22    30.27F                  
RAWLINS        FAIR      59  30  33 W20G29    30.21F                  
6HR MIN TEMP:  40; 6HR MAX TEMP:  60;                                

SARATOGA       FAIR      59  27  29 W10G16    30.24F                  
LARAMIE        FAIR      60  27  28 W5        30.18F                  
6HR MIN TEMP:  25; 6HR MAX TEMP:  60;                                

CHEYENNE       FAIR      63  29  27 NW15G30   30.15F                  
6HR MIN TEMP:  35; 6HR MAX TEMP:  63;                                

TORRINGTON     FAIR      69  34  27 VRB7G17   30.05F                  
6HR MIN TEMP:  30; 6HR MAX TEMP:  69;                                

PINE BLUFFS    FAIR      66  28  24 W12G22    30.12F                  

$$